Tracking 34085 objects as of 13-May-2026
HD Live streaming from Space Station
objects crossing your sky now

CENTISPACE-2 S4

Track CENTISPACE-2 S4 now!
10-day predictions


NORAD ID: 68353
Int'l Code: 2026-060D
Perigee: 647.9 km
Apogee: 665.0 km
Inclination: 55.0 °
Period: 97.7 minutes
Semi major axis: 7027 km
RCS: Unknown
Launch date: March 22, 2026
Source: People's Republic of China (PRC)
Launch site: Yellow Sea Launch Area, China (YSLA)
Your satellite tracking list
Your tracking list is empty




NASA's NSSDC Master Catalog

Two Line Element Set (TLE):
1 68353U 26060D   26132.96262259 -.00000089  00000-0  17970-4 0  9990
2 68353  54.9812 179.6299 0012183  70.4065 289.8248 14.73701014  7574
Source of the keplerian elements: AFSPC